AFL771 LTAI-URSS

Flight info

Callsign AFL771
Flight time 1h 46m
Altitude 34000
Route TEWHE UR55 MUT UA285 SELVI/N0465F350 UA285 GEM UT243 CRM UG901 BALUM/K0859F350 G901 KEPOL G487 DIRUN DIRUN1K
Aircraft B738/M-SDE2E3FGHIRWXY/LB1

Departure

Time 2026-05-07 13:07
Airport Antalya International Airport (LTAI)

Arrival

Time 2026-05-07 14:53
Airport Sochi International Airport (URSS)
Time Latitude Longitude Altitude Speed Heading
2026-05-07 12:11 36.89783 30.80234 191 ft 0 kts 285°
2026-05-07 12:20 36.89783 30.80235 191 ft 0 kts 285°
2026-05-07 12:37 36.89783 30.80236 191 ft 0 kts 285°
2026-05-07 12:40 36.89782 30.80236 191 ft 0 kts 285°
2026-05-07 12:54 36.89778 30.80255 206 ft 10 kts 291°
2026-05-07 12:54 36.89766 30.80285 203 ft 9 kts 306°
2026-05-07 12:55 36.89748 30.80309 199 ft 9 kts 330°
2026-05-07 12:55 36.89725 30.80318 203 ft 8 kts
2026-05-07 12:55 36.89700 30.80316 204 ft 9 kts
2026-05-07 12:55 36.89674 30.80312 202 ft 9 kts
2026-05-07 12:56 36.89647 30.80307 201 ft 9 kts
2026-05-07 12:56 36.89625 30.80304 201 ft 9 kts 17°
2026-05-07 12:56 36.89606 30.80285 202 ft 10 kts 46°
2026-05-07 12:56 36.89594 30.80267 205 ft 10 kts 93°
2026-05-07 12:57 36.89595 30.80257 203 ft 49 kts 94°
2026-05-07 12:59 36.89595 30.80261 204 ft 1 kts 95°
2026-05-07 13:00 36.89593 30.80286 191 ft 5 kts 96°
2026-05-07 13:00 36.89587 30.80339 197 ft 8 kts 98°
2026-05-07 13:00 36.89580 30.80419 191 ft 11 kts 96°
2026-05-07 13:00 36.89571 30.80522 191 ft 13 kts 96°
2026-05-07 13:01 36.89563 30.80646 195 ft 14 kts 83°
2026-05-07 13:01 36.89611 30.80697 190 ft 15 kts
2026-05-07 13:01 36.89709 30.80711 201 ft 14 kts
2026-05-07 13:01 36.89805 30.80724 194 ft 13 kts
2026-05-07 13:02 36.89896 30.80736 191 ft 13 kts
2026-05-07 13:02 36.89985 30.80747 204 ft 13 kts
2026-05-07 13:02 36.90079 30.80760 191 ft 15 kts
2026-05-07 13:02 36.90193 30.80777 203 ft 18 kts
2026-05-07 13:03 36.90326 30.80795 200 ft 19 kts
2026-05-07 13:03 36.90458 30.80813 201 ft 19 kts
2026-05-07 13:03 36.90584 30.80830 202 ft 18 kts
2026-05-07 13:03 36.90707 30.80847 193 ft 17 kts
2026-05-07 13:04 36.90825 30.80863 190 ft 17 kts
2026-05-07 13:04 36.90939 30.80878 197 ft 16 kts
2026-05-07 13:04 36.91047 30.80893 190 ft 15 kts
2026-05-07 13:04 36.91131 30.80948 197 ft 14 kts 66°
2026-05-07 13:05 36.91133 30.81027 195 ft 3 kts 95°
2026-05-07 13:05 36.91130 30.81056 204 ft 3 kts 97°
2026-05-07 13:05 36.91127 30.81090 195 ft 4 kts 98°
2026-05-07 13:05 36.91119 30.81132 189 ft 6 kts 127°
2026-05-07 13:06 36.91095 30.81137 193 ft 0 kts 188°
2026-05-07 13:06 36.91093 30.81137 193 ft 3 kts 188°
2026-05-07 13:06 36.90975 30.81120 194 ft 44 kts 186°
2026-05-07 13:06 36.90428 30.81044 201 ft 112 kts 186°
2026-05-07 13:07 36.89479 30.80903 330 ft 152 kts 188°
2026-05-07 13:07 36.88396 30.80727 907 ft 162 kts 182°
2026-05-07 13:07 36.87232 30.80864 1574 ft 174 kts 169°
2026-05-07 13:07 36.85954 30.81143 1927 ft 201 kts 172°
2026-05-07 13:08 36.84503 30.81413 2223 ft 218 kts 172°
2026-05-07 13:08 36.82987 30.81693 2591 ft 228 kts 171°
2026-05-07 13:08 36.81371 30.81993 2958 ft 241 kts 171°
2026-05-07 13:08 36.79662 30.82353 3316 ft 258 kts 164°
2026-05-07 13:09 36.77973 30.83263 3710 ft 271 kts 152°
2026-05-07 13:09 36.76269 30.84353 4093 ft 277 kts 152°
2026-05-07 13:09 36.74700 30.85721 4440 ft 274 kts 129°
2026-05-07 13:09 36.73807 30.87774 4828 ft 268 kts 103°
2026-05-07 13:10 36.73509 30.90075 5227 ft 271 kts 92°
2026-05-07 13:10 36.73330 30.92442 5828 ft 277 kts 92°
2026-05-07 13:10 36.73157 30.94850 6615 ft 278 kts 92°
2026-05-07 13:10 36.72982 30.97223 7401 ft 278 kts 93°
2026-05-07 13:11 36.72798 30.99640 8109 ft 282 kts 92°
2026-05-07 13:11 36.72606 31.02092 8796 ft 286 kts 93°
2026-05-07 13:11 36.72405 31.04587 9523 ft 290 kts 92°
2026-05-07 13:11 36.72201 31.07099 10207 ft 293 kts 93°
2026-05-07 13:12 36.71993 31.09644 10799 ft 297 kts 92°
2026-05-07 13:12 36.71803 31.12214 10967 ft 297 kts 88°
2026-05-07 13:12 36.71925 31.14771 11100 ft 296 kts 80°
2026-05-07 13:12 36.72191 31.17300 11673 ft 300 kts 79°
2026-05-07 13:13 36.72459 31.19894 12379 ft 303 kts 80°
2026-05-07 13:13 36.72704 31.22517 13080 ft 306 kts 80°
2026-05-07 13:13 36.72938 31.25185 13648 ft 317 kts 81°
2026-05-07 13:13 36.73182 31.28020 13799 ft 339 kts 81°
2026-05-07 13:14 36.73437 31.31035 13970 ft 360 kts 81°
2026-05-07 13:14 36.73739 31.34205 14256 ft 373 kts 76°
2026-05-07 13:14 36.74710 31.37178 14761 ft 371 kts 53°
2026-05-07 13:14 36.76419 31.39559 15455 ft 368 kts 39°
2026-05-07 13:15 36.78342 31.41678 16109 ft 371 kts 38°
2026-05-07 13:15 36.80309 31.43793 16701 ft 375 kts 37°
2026-05-07 13:15 36.82292 31.45936 17313 ft 379 kts 37°
2026-05-07 13:15 36.84288 31.48116 17930 ft 383 kts 37°
2026-05-07 13:16 36.86293 31.50327 18508 ft 386 kts 37°
2026-05-07 13:16 36.88289 31.52541 19054 ft 390 kts 38°
2026-05-07 13:16 36.90327 31.54806 19482 ft 396 kts 38°
2026-05-07 13:16 36.92390 31.57103 20020 ft 398 kts 38°
2026-05-07 13:17 36.94453 31.59419 20613 ft 400 kts 40°
2026-05-07 13:17 36.96137 31.62234 21136 ft 413 kts 60°
2026-05-07 13:17 36.97035 31.65694 21637 ft 427 kts 78°
2026-05-07 13:17 36.97140 31.69454 22102 ft 435 kts 87°
2026-05-07 13:18 36.97070 31.73250 22596 ft 439 kts 88°
2026-05-07 13:18 36.96984 31.77077 23056 ft 442 kts 87°
2026-05-07 13:18 36.96927 31.80889 23494 ft 446 kts 86°
2026-05-07 13:18 36.96871 31.84788 23845 ft 453 kts 90°
2026-05-07 13:19 36.96149 31.88654 24206 ft 465 kts 111°
2026-05-07 13:19 36.94470 31.92118 24685 ft 470 kts 129°
2026-05-07 13:19 36.92064 31.94910 25081 ft 473 kts 140°
2026-05-07 13:19 36.89836 31.97912 25387 ft 474 kts 120°
2026-05-07 13:20 36.88583 32.01685 25700 ft 469 kts 97°
2026-05-07 13:20 36.88433 32.05702 26067 ft 460 kts 79°
2026-05-07 13:20 36.88872 32.09652 26496 ft 459 kts 77°
2026-05-07 13:20 36.89269 32.13616 26915 ft 461 kts 80°
2026-05-07 13:21 36.89478 32.17611 27496 ft 461 kts 83°
2026-05-07 13:21 36.89521 32.21615 27994 ft 461 kts 86°
2026-05-07 13:21 36.89452 32.25623 28415 ft 463 kts 87°
2026-05-07 13:21 36.89331 32.29650 28824 ft 463 kts 88°
2026-05-07 13:22 36.89199 32.33662 29347 ft 461 kts 88°
2026-05-07 13:22 36.89076 32.37607 29861 ft 459 kts 87°
2026-05-07 13:22 36.88965 32.41600 30273 ft 460 kts 87°
2026-05-07 13:22 36.88858 32.45597 30621 ft 460 kts 87°
2026-05-07 13:23 36.88750 32.49587 30995 ft 459 kts 87°
2026-05-07 13:23 36.88641 32.53566 31396 ft 458 kts 87°
2026-05-07 13:23 36.88529 32.57535 31787 ft 457 kts 87°
2026-05-07 13:23 36.88416 32.61500 32156 ft 457 kts 88°
2026-05-07 13:24 36.88305 32.65468 32445 ft 458 kts 87°
2026-05-07 13:24 36.88193 32.69453 32703 ft 460 kts 87°
2026-05-07 13:24 36.88075 32.73438 33075 ft 459 kts 88°
2026-05-07 13:24 36.87955 32.77413 33507 ft 456 kts 88°
2026-05-07 13:25 36.87835 32.81368 33870 ft 456 kts 88°
2026-05-07 13:25 36.87715 32.85331 34162 ft 456 kts 88°
2026-05-07 13:25 36.87593 32.89291 34447 ft 456 kts 87°
2026-05-07 13:25 36.87471 32.93253 34741 ft 456 kts 88°
2026-05-07 13:26 36.87347 32.97201 35022 ft 455 kts 88°
2026-05-07 13:26 36.87223 33.01141 35306 ft 454 kts 88°
2026-05-07 13:26 36.87099 33.05030 35528 ft 454 kts 88°
2026-05-07 13:26 36.86972 33.08975 35779 ft 454 kts 88°
2026-05-07 13:27 36.86844 33.12899 36077 ft 452 kts 88°
2026-05-07 13:27 36.86716 33.16809 36344 ft 450 kts 88°
2026-05-07 13:27 36.86586 33.20708 36615 ft 448 kts 88°
2026-05-07 13:27 36.86500 33.24597 36736 ft 447 kts 81°
2026-05-07 13:28 36.87146 33.28331 36802 ft 435 kts 61°
2026-05-07 13:28 36.88561 33.31608 36978 ft 423 kts 46°
2026-05-07 13:28 36.90524 33.34270 37143 ft 414 kts 37°
2026-05-07 13:28 36.92660 33.36716 37131 ft 417 kts 36°
2026-05-07 13:29 36.96969 33.41520 37145 ft 416 kts 36°
2026-05-07 13:29 37.01251 33.46353 37144 ft 413 kts 36°
2026-05-07 13:30 37.05480 33.51192 37147 ft 410 kts 36°
2026-05-07 13:30 37.09673 33.56016 37169 ft 408 kts 36°
2026-05-07 13:31 37.13849 33.60834 37157 ft 408 kts 36°
2026-05-07 13:31 37.18022 33.65652 37163 ft 408 kts 36°
2026-05-07 13:32 37.22214 33.70500 37172 ft 410 kts 36°
2026-05-07 13:32 37.26394 33.75343 37162 ft 413 kts 37°
2026-05-07 13:33 37.30630 33.80259 37168 ft 416 kts 37°
2026-05-07 13:33 37.34884 33.85204 37172 ft 418 kts 37°
2026-05-07 13:34 37.41312 33.92693 37165 ft 421 kts 37°
2026-05-07 13:35 37.45601 33.97699 37158 ft 421 kts 37°
2026-05-07 13:35 37.49893 34.02715 37162 ft 420 kts 37°
2026-05-07 13:36 37.54147 34.07698 37159 ft 419 kts 37°
2026-05-07 13:36 37.58409 34.12698 37160 ft 418 kts 37°
2026-05-07 13:37 37.62655 34.17687 37151 ft 417 kts 37°
2026-05-07 13:37 37.66890 34.22671 37156 ft 416 kts 37°
2026-05-07 13:38 37.71121 34.27658 37132 ft 416 kts 37°
2026-05-07 13:38 37.75349 34.32651 37115 ft 415 kts 37°
2026-05-07 13:39 37.79574 34.37648 37104 ft 416 kts 37°
2026-05-07 13:39 37.83798 34.42653 37115 ft 416 kts 37°
2026-05-07 13:40 37.88004 34.47644 37111 ft 417 kts 37°
2026-05-07 13:40 37.92245 34.52686 37109 ft 418 kts 37°
2026-05-07 13:41 37.96486 34.57744 37122 ft 419 kts 37°
2026-05-07 13:41 38.00739 34.62826 37158 ft 421 kts 37°
2026-05-07 13:42 38.04998 34.67924 37157 ft 421 kts 37°
2026-05-07 13:42 38.09262 34.73036 37174 ft 422 kts 37°
2026-05-07 13:43 38.13508 34.78136 37157 ft 422 kts 37°
2026-05-07 13:43 38.17780 34.83275 37150 ft 422 kts 37°
2026-05-07 13:44 38.22044 34.88414 37165 ft 422 kts 37°
2026-05-07 13:44 38.26280 34.93526 37153 ft 422 kts 38°
2026-05-07 13:45 38.30548 34.98642 37149 ft 421 kts 37°
2026-05-07 13:45 38.34822 35.03733 37139 ft 420 kts 37°
2026-05-07 13:46 38.39116 35.08741 37151 ft 417 kts 34°
2026-05-07 13:46 38.43565 35.13460 37150 ft 415 kts 34°
2026-05-07 13:47 38.48007 35.18172 37154 ft 415 kts 34°
2026-05-07 13:47 38.52423 35.22927 37167 ft 416 kts 36°
2026-05-07 13:48 38.56584 35.28055 37163 ft 420 kts 40°
2026-05-07 13:48 38.60690 35.33379 37163 ft 421 kts 40°
2026-05-07 13:49 38.64811 35.38699 37172 ft 421 kts 40°
2026-05-07 13:49 38.68954 35.44010 37155 ft 422 kts 39°
2026-05-07 13:50 38.73113 35.49338 37153 ft 422 kts 39°
2026-05-07 13:50 38.77261 35.54660 37166 ft 422 kts 40°
2026-05-07 13:51 38.80702 35.59084 37159 ft 422 kts 40°
2026-05-07 13:51 38.84841 35.64413 37163 ft 421 kts 40°
2026-05-07 13:52 38.88977 35.69747 37157 ft 421 kts 40°
2026-05-07 13:52 38.93101 35.75076 37158 ft 420 kts 40°
2026-05-07 13:53 38.97232 35.80312 37151 ft 419 kts 39°
2026-05-07 13:53 39.01436 35.85500 37157 ft 419 kts 39°
2026-05-07 13:54 39.05635 35.90707 37156 ft 420 kts 39°
2026-05-07 13:54 39.09838 35.95947 37153 ft 420 kts 39°
2026-05-07 13:55 39.14140 36.01035 37135 ft 416 kts 30°
2026-05-07 13:55 39.19228 36.04307 37138 ft 405 kts 12°
2026-05-07 13:56 39.24652 36.06142 37146 ft 404 kts 10°
2026-05-07 13:56 39.30072 36.07909 37151 ft 404 kts 10°
2026-05-07 13:57 39.35522 36.09728 37146 ft 405 kts 11°
2026-05-07 13:57 39.40978 36.11579 37145 ft 405 kts 11°
2026-05-07 13:58 39.46435 36.13440 37138 ft 406 kts 11°
2026-05-07 13:58 39.51894 36.15305 37150 ft 406 kts 11°
2026-05-07 13:59 39.57364 36.17176 37144 ft 406 kts 11°
2026-05-07 13:59 39.62791 36.19035 37136 ft 406 kts 11°
2026-05-07 14:00 39.68245 36.20908 37144 ft 405 kts 11°
2026-05-07 14:00 39.73700 36.22780 37140 ft 405 kts 12°
2026-05-07 14:01 39.79155 36.24659 37133 ft 405 kts 12°
2026-05-07 14:01 39.84603 36.26534 37143 ft 405 kts 12°
2026-05-07 14:02 39.90085 36.28214 37126 ft 404 kts
2026-05-07 14:02 39.95637 36.29341 37126 ft 403 kts
2026-05-07 14:03 40.01153 36.30420 37135 ft 403 kts
2026-05-07 14:03 40.06706 36.31562 37122 ft 403 kts
2026-05-07 14:04 40.12240 36.32728 37130 ft 403 kts
2026-05-07 14:04 40.17786 36.33903 37123 ft 403 kts
2026-05-07 14:05 40.23314 36.35076 37137 ft 403 kts
2026-05-07 14:05 40.28848 36.36250 37127 ft 403 kts
2026-05-07 14:06 40.34346 36.37392 37127 ft 402 kts
2026-05-07 14:06 40.39883 36.38427 37130 ft 401 kts
2026-05-07 14:07 40.45411 36.39446 37127 ft 401 kts
2026-05-07 14:07 40.50939 36.40478 37126 ft 402 kts
2026-05-07 14:08 40.56490 36.41522 37124 ft 402 kts
2026-05-07 14:08 40.62001 36.42563 37125 ft 402 kts
2026-05-07 14:09 40.67549 36.43613 37106 ft 403 kts
2026-05-07 14:09 40.73096 36.44665 37121 ft 403 kts
2026-05-07 14:10 40.78649 36.45719 37118 ft 403 kts
2026-05-07 14:10 40.84199 36.46775 37127 ft 403 kts
2026-05-07 14:11 40.89749 36.47833 37121 ft 403 kts
2026-05-07 14:11 40.95302 36.48892 37129 ft 403 kts
2026-05-07 14:12 41.00855 36.49954 37137 ft 403 kts
2026-05-07 14:12 41.06412 36.51018 37137 ft 403 kts
2026-05-07 14:13 41.11968 36.52084 37151 ft 403 kts
2026-05-07 14:13 41.17526 36.53152 37143 ft 404 kts
2026-05-07 14:14 41.23086 36.54222 37153 ft 403 kts
2026-05-07 14:14 41.28459 36.56269 37161 ft 407 kts 24°
2026-05-07 14:15 41.33403 36.60000 37163 ft 409 kts 28°
2026-05-07 14:15 41.38308 36.63862 37162 ft 410 kts 28°
2026-05-07 14:16 41.43231 36.67706 37159 ft 410 kts 28°
2026-05-07 14:16 41.48164 36.71533 37172 ft 411 kts 28°
2026-05-07 14:17 41.53113 36.75369 37163 ft 412 kts 28°
2026-05-07 14:17 41.58068 36.79216 37165 ft 412 kts 28°
2026-05-07 14:18 41.63001 36.83054 37166 ft 413 kts 28°
2026-05-07 14:18 41.67969 36.86925 37172 ft 413 kts 28°
2026-05-07 14:19 41.72943 36.90810 37160 ft 414 kts 28°
2026-05-07 14:19 41.77918 36.94702 37170 ft 414 kts 28°
2026-05-07 14:20 41.82893 36.98601 37169 ft 414 kts 28°
2026-05-07 14:20 41.87868 37.02507 37172 ft 414 kts 28°
2026-05-07 14:21 41.92807 37.06389 37170 ft 414 kts 28°
2026-05-07 14:21 41.97790 37.10305 37186 ft 414 kts 28°
2026-05-07 14:22 42.02759 37.14217 37173 ft 414 kts 28°
2026-05-07 14:22 42.05251 37.16183 36918 ft 417 kts 29°
2026-05-07 14:22 42.07749 37.18155 36676 ft 415 kts 29°
2026-05-07 14:22 42.10227 37.20114 36416 ft 411 kts 29°
2026-05-07 14:23 42.12655 37.22035 36169 ft 409 kts 29°
2026-05-07 14:23 42.15108 37.23977 35931 ft 407 kts 29°
2026-05-07 14:23 42.17550 37.25912 35678 ft 406 kts 29°
2026-05-07 14:23 42.19983 37.27843 35449 ft 405 kts 29°
2026-05-07 14:24 42.22410 37.29769 35143 ft 406 kts 29°
2026-05-07 14:24 42.24857 37.31713 34781 ft 408 kts 29°
2026-05-07 14:24 42.27308 37.33662 34414 ft 410 kts 29°
2026-05-07 14:24 42.29768 37.35621 34029 ft 411 kts 29°
2026-05-07 14:25 42.32237 37.37588 33597 ft 412 kts 29°
2026-05-07 14:25 42.34703 37.39555 33156 ft 412 kts 29°
2026-05-07 14:25 42.37168 37.41523 32730 ft 411 kts 30°
2026-05-07 14:25 42.39630 37.43490 32318 ft 411 kts 30°
2026-05-07 14:26 42.42092 37.45457 31905 ft 410 kts 29°
2026-05-07 14:26 42.44513 37.47388 31506 ft 409 kts 29°
2026-05-07 14:26 42.46994 37.49372 31108 ft 408 kts 30°
2026-05-07 14:26 42.49436 37.51329 30714 ft 407 kts 30°
2026-05-07 14:27 42.51876 37.53288 30327 ft 407 kts 30°
2026-05-07 14:27 42.54275 37.55217 29890 ft 406 kts 30°
2026-05-07 14:27 42.56705 37.57173 29438 ft 407 kts 30°
2026-05-07 14:27 42.59145 37.59139 29001 ft 410 kts 30°
2026-05-07 14:28 42.61616 37.61132 28574 ft 416 kts 30°
2026-05-07 14:28 42.64113 37.63147 28143 ft 418 kts 30°
2026-05-07 14:28 42.66613 37.65164 27718 ft 417 kts 30°
2026-05-07 14:28 42.69097 37.67193 27297 ft 416 kts 31°
2026-05-07 14:29 42.71524 37.69335 26883 ft 416 kts 33°
2026-05-07 14:29 42.73918 37.71542 26475 ft 416 kts 33°
2026-05-07 14:29 42.76303 37.73770 26075 ft 416 kts 33°
2026-05-07 14:29 42.78693 37.76001 25681 ft 417 kts 33°
2026-05-07 14:30 42.81094 37.78232 25292 ft 417 kts 33°
2026-05-07 14:30 42.83495 37.80454 24907 ft 417 kts 33°
2026-05-07 14:30 42.85893 37.82670 24530 ft 416 kts 33°
2026-05-07 14:30 42.88285 37.84879 24149 ft 415 kts 33°
2026-05-07 14:31 42.90669 37.87082 23772 ft 412 kts 32°
2026-05-07 14:31 42.93039 37.89276 23340 ft 410 kts 33°
2026-05-07 14:31 42.95373 37.91444 22891 ft 403 kts 33°
2026-05-07 14:31 42.97667 37.93573 22453 ft 395 kts 33°
2026-05-07 14:32 42.99922 37.95664 22030 ft 389 kts 33°
2026-05-07 14:32 43.01986 37.98001 21593 ft 384 kts 45°
2026-05-07 14:32 43.03641 38.00843 21193 ft 380 kts 55°
2026-05-07 14:32 43.04888 38.04009 20778 ft 377 kts 66°
2026-05-07 14:33 43.05820 38.07333 20390 ft 372 kts 68°
2026-05-07 14:33 43.06728 38.10617 20213 ft 362 kts 67°
2026-05-07 14:33 43.07605 38.13725 20179 ft 348 kts 67°
2026-05-07 14:33 43.08453 38.16748 20185 ft 334 kts 70°
2026-05-07 14:34 43.08885 38.19836 20083 ft 332 kts 82°
2026-05-07 14:34 43.09080 38.23020 19598 ft 339 kts 84°
2026-05-07 14:34 43.09242 38.26248 19251 ft 338 kts 84°
2026-05-07 14:34 43.09397 38.29435 18964 ft 334 kts 84°
2026-05-07 14:35 43.09556 38.32583 18677 ft 330 kts 84°
2026-05-07 14:35 43.09722 38.35701 18382 ft 326 kts 84°
2026-05-07 14:35 43.09891 38.38780 18051 ft 323 kts 84°
2026-05-07 14:35 43.10061 38.41829 17727 ft 320 kts 84°
2026-05-07 14:36 43.10232 38.44852 17408 ft 317 kts 84°
2026-05-07 14:36 43.10403 38.47855 17094 ft 315 kts 84°
2026-05-07 14:36 43.10573 38.50830 16806 ft 312 kts 84°
2026-05-07 14:36 43.10740 38.53773 16548 ft 309 kts 84°
2026-05-07 14:37 43.10906 38.56707 16294 ft 309 kts 84°
2026-05-07 14:37 43.11238 38.62591 15805 ft 311 kts 84°
2026-05-07 14:37 43.11405 38.65558 15561 ft 313 kts 84°
2026-05-07 14:38 43.11571 38.68529 15311 ft 313 kts 84°
2026-05-07 14:38 43.11733 38.71461 15071 ft 312 kts 84°
2026-05-07 14:38 43.11897 38.74423 14829 ft 312 kts 84°
2026-05-07 14:38 43.12059 38.77383 14587 ft 311 kts 84°
2026-05-07 14:39 43.12221 38.80340 14348 ft 311 kts 84°
2026-05-07 14:39 43.12382 38.83288 14108 ft 311 kts 84°
2026-05-07 14:39 43.12488 38.85243 13946 ft 310 kts 84°
2026-05-07 14:39 43.12646 38.88185 13680 ft 310 kts 84°
2026-05-07 14:40 43.12804 38.91124 13415 ft 309 kts 84°
2026-05-07 14:40 43.12961 38.94042 13146 ft 305 kts 84°
2026-05-07 14:40 43.13117 38.96922 12879 ft 301 kts 84°
2026-05-07 14:40 43.13270 38.99764 12615 ft 297 kts 84°
2026-05-07 14:41 43.13419 39.02580 12361 ft 296 kts 84°
2026-05-07 14:41 43.13566 39.05381 12107 ft 294 kts 84°
2026-05-07 14:41 43.13710 39.08135 11856 ft 292 kts 84°
2026-05-07 14:41 43.13854 39.10905 11606 ft 291 kts 84°
2026-05-07 14:42 43.13996 39.13664 11361 ft 290 kts 84°
2026-05-07 14:42 43.14138 39.16420 11116 ft 289 kts 84°
2026-05-07 14:42 43.14278 39.19165 10872 ft 289 kts 84°
2026-05-07 14:42 43.14419 39.21915 10635 ft 288 kts 85°
2026-05-07 14:43 43.14557 39.24648 10399 ft 287 kts 84°
2026-05-07 14:43 43.14696 39.27379 10160 ft 287 kts 84°
2026-05-07 14:43 43.14874 39.30087 10042 ft 285 kts 78°
2026-05-07 14:43 43.15406 39.32720 10021 ft 288 kts 70°
2026-05-07 14:44 43.16063 39.35315 9829 ft 289 kts 70°
2026-05-07 14:44 43.16715 39.37889 9566 ft 289 kts 70°
2026-05-07 14:44 43.17350 39.40489 9298 ft 285 kts 71°
2026-05-07 14:44 43.17959 39.43054 9034 ft 281 kts 71°
2026-05-07 14:45 43.18556 39.45592 8770 ft 278 kts 71°
2026-05-07 14:45 43.19149 39.48121 8315 ft 282 kts 71°
2026-05-07 14:45 43.19753 39.50710 7802 ft 288 kts 71°
2026-05-07 14:45 43.20369 39.53350 7293 ft 293 kts 71°
2026-05-07 14:46 43.20993 39.56033 6788 ft 297 kts 71°
2026-05-07 14:46 43.21623 39.58739 6252 ft 296 kts 71°
2026-05-07 14:46 43.22243 39.61410 5706 ft 291 kts 71°
2026-05-07 14:46 43.22853 39.64040 5181 ft 287 kts 71°
2026-05-07 14:47 43.23451 39.66624 4706 ft 281 kts 71°
2026-05-07 14:47 43.24036 39.69147 3944 ft 286 kts 71°
2026-05-07 14:47 43.24641 39.71762 3326 ft 286 kts 71°
2026-05-07 14:47 43.25232 39.74323 2941 ft 277 kts 71°
2026-05-07 14:48 43.25805 39.76805 2554 ft 269 kts 72°
2026-05-07 14:48 43.26363 39.79224 2187 ft 262 kts 72°
2026-05-07 14:48 43.26930 39.81546 2018 ft 247 kts 64°
2026-05-07 14:48 43.28022 39.83162 2017 ft 222 kts 27°
2026-05-07 14:49 43.29345 39.84037 1999 ft 200 kts 26°
2026-05-07 14:49 43.30552 39.84885 2006 ft 190 kts 27°
2026-05-07 14:49 43.31659 39.85684 1980 ft 169 kts 27°
2026-05-07 14:49 43.32645 39.86406 1977 ft 156 kts 27°
2026-05-07 14:50 43.33600 39.87079 1990 ft 154 kts 25°
2026-05-07 14:50 43.34547 39.87758 1951 ft 158 kts 27°
2026-05-07 14:50 43.35518 39.88484 1765 ft 159 kts 27°
2026-05-07 14:50 43.36482 39.89210 1536 ft 159 kts 28°
2026-05-07 14:51 43.37424 39.89922 1365 ft 154 kts 26°
2026-05-07 14:51 43.38362 39.90631 1151 ft 154 kts 27°
2026-05-07 14:51 43.39304 39.91342 947 ft 154 kts 25°
2026-05-07 14:51 43.40242 39.92055 760 ft 153 kts 26°
2026-05-07 14:52 43.41163 39.92742 543 ft 149 kts 26°
2026-05-07 14:52 43.42078 39.93436 388 ft 150 kts 27°
2026-05-07 14:52 43.42994 39.94124 194 ft 150 kts 28°
2026-05-07 14:52 43.43892 39.94811 70 ft 140 kts 26°
2026-05-07 14:53 43.44589 39.95328 83 ft 83 kts 28°
2026-05-07 14:53 43.44909 39.95565 88 ft 25 kts 26°
2026-05-07 14:53 43.44983 39.95559 90 ft 9 kts 335°
2026-05-07 14:53 43.45040 39.95525 90 ft 9 kts 335°
2026-05-07 14:54 43.45076 39.95475 91 ft 7 kts 305°
2026-05-07 14:54 43.45096 39.95410 91 ft 8 kts 281°
2026-05-07 14:54 43.45083 39.95331 89 ft 10 kts 248°
2026-05-07 14:54 43.45052 39.95239 86 ft 12 kts 244°
2026-05-07 14:55 43.45014 39.95127 84 ft 14 kts 245°
2026-05-07 14:55 43.44954 39.95013 83 ft 16 kts 242°
2026-05-07 14:55 43.44906 39.94869 67 ft 17 kts 244°
2026-05-07 14:55 43.44852 39.94714 70 ft 18 kts 245°
2026-05-07 14:56 43.44800 39.94562 71 ft 17 kts 245°
2026-05-07 14:56 43.44768 39.94467 68 ft 9 kts 246°
2026-05-07 14:56 43.44783 39.94393 70 ft 9 kts 332°
2026-05-07 14:56 43.44809 39.94377 70 ft 0 kts 336°